Location: Newark
(48.6767°N, 1.3256°E)
Time: 00:42:06
(UTC+00:00)

ISS - Pass Details

Date: 28 November 2019
Orbit: 411 x 421 km, 51.6° (Epoch: 15 December)

Event Time Altitude Azimuth Distance (km) Brightness Sun altitude
Rises 17:21:51 0° 250° (WSW) 2,350 2.2 -12.6°
Reaches altitude 10° 17:23:56 10° 250° (WSW) 1,492 0.5 -12.9°
Maximum altitude 17:27:18 85° 340° (NNW) 425 -3.8 -13.4°
Enters shadow 17:29:01 27° 67° (ENE) 852 -2.8 -13.7°
